Regional Weather Roundup
Issued by NWS Jackson, KY

Home | Current Version | Previous Version | Text Only | Print | Product List | Glossary On
Versions: 1 2 3 4 5 6 7 8 9 10 11 12 13 14 15 16 17 18 19 20 21 22 23 24 25 26 27 28
000
ASUS43 KJKL 200710
RWRJKL

EAST KENTUCKY HOURLY WEATHER ROUNDUP
NATIONAL WEATHER SERVICE JACKSON KY
300 AM EDT FRI APR 20 2018

NOTE: "FAIR" INDICATES FEW OR NO CLOUDS BELOW 12,000 FEET WITH
NO SIGNIFICANT WEATHER AND/OR OBSTRUCTIONS TO VISIBILITY.

* THESE REPORTS ARE NOT UNDER NWS QUALITY CONTROL AND MAY NOT
  REPORT WEATHER SUCH AS PRECIPITATION AND FOG.

KYZ079-080-083-085-087-088-110-112-115-119-120-200800
...EASTERN KENTUCKY...

CITY           SKY/WX    TMP DP  RH WIND       PRES   REMARKS
JACKSON          N/A     36  29  75 SW5       30.32S WCI  32
LONDON           N/A     33  31  92 CALM      30.33F
SOMERSET*        N/A     32  32 100 CALM      30.36R
MONTICELLO*      N/A     27  25  92 N8        30.36S WCI  19
WILLIAMSBURG*    N/A     30  30 100 CALM      30.34S
MIDDLESBORO*     N/A     31  31 100 CALM      30.35S
HARLAN APT*      N/A     31  30  95 CALM      30.33S
PIKE CO APT*     N/A     37  29  72 SW3       30.31S
BIG SANDY APT*   N/A     37  30  77 SW3       30.32R
MOREHEAD APT*    N/A     37  28  70 CALM      30.35S
ASHLAND*         N/A     34  31  88 CALM      30.34R
$$

KYZ035-036-041-042-044-050-067-078-099-200800
...CENTRAL KENTUCKY...

CITY           SKY/WX    TMP DP  RH WIND       PRES   REMARKS
MT STERLING*     N/A     37  30  75 N6        30.35S WCI  33
FLEMING/MASON*   N/A     37  29  73 NW3       30.35S
DANVILLE*        N/A     34  28  80 CALM      30.36R
LEXINGTON        N/A     39  28  64 N8        30.34S WCI  33
FRANKFORT        N/A     39  26  59 NW6       30.34S WCI  35
LOUISVILLE       N/A     44  25  47 N9G21     30.37S
GLASGOW*         N/A     33  32  98 CALM      30.36R
BOWLING GREEN    N/A     37  35  92 CALM      30.36S
$$

KYZ091>093-OHZ055-061-077-WVZ005-015-034-035-042-200800
...SOUTHERN OHIO/WEST VIRGINIA...

CITY           SKY/WX    TMP DP  RH WIND       PRES   REMARKS
COVINGTON        N/A     38  27  64 N7        30.36R WCI  33
COLUMBUS         N/A     37  23  56 N6        30.35R WCI  32
DAYTON           N/A     33  29  85 N8        30.37R WCI  26
WILMINGTON       N/A     39  32  76 N9        30.35R WCI  33
HUNTINGTON       N/A     39  30  70 W3        30.31R
CHARLESTON       N/A     33  31  92 CALM      30.29R
PINEVILLE*       N/A     30  28  94 MISG        N/A
BECKLEY          N/A     33  25  72 W7        30.24S WCI  27
BLUEFIELD        N/A     31  24  75 W7        30.25S WCI  24
LOGAN CO APT*    N/A     37  28  70 CALM      30.28S
$$

VAZ002-007-008-TNZ017-027-036-066-071-200800
...SOUTHWEST VIRGINIA/EAST TENNESSEE...

CITY           SKY/WX    TMP DP  RH WIND       PRES   REMARKS
WISE*            N/A     32  28  86 W5        30.29F WCI  27
JONESVILLE*      N/A     30  30 100 CALM      30.34F
ABINGDON*        N/A     36  30  79 NW6       30.30S WCI  31
BRISTOL          N/A     31  29  92 CALM      30.32S
MORRISTOWN*    MOSUNNY   36  30  80 CALM      30.32F
SEVIERVILLE*   SUNNY     34  30  86 CALM      30.33F
KNOXVILLE        N/A     37  30  75 NE8       30.31F WCI  31
LAFOLLETTE*    SUNNY     32  30  93 CALM      30.36F
OAK RIDGE        N/A     38  32  79 CALM      30.34F
CROSSVILLE       N/A     34  27  75 NE6       30.30F WCI  29
NASHVILLE        N/A     41  33  73 N5        30.35S
$$

...KEY TO REMARKS...
VSB - VISIBILITY IN MILES
WCI - WIND CHILL INDEX
HX  - HEAT INDEX

$$




USA.gov is the U.S. government's official web portal to all federal, state and local government web resources and services.